Regional Weather Roundup
Issued by NWS

Home | Current Version | Previous Version | Text Only | Print | Product List | Glossary On
Versions: 1 2 3 4 5 6 7 8 9 10 11 12 13 14 15 16 17 18 19 20 21 22 23 24 25 26 27 28 29 30 31 32 33 34 35 36 37 38 39 40 41 42 43 44 45 46 47 48 49 50
000
ASUS43 KLMK 292102
RWRKY
KENTUCKY REGIONAL WEATHER ROUNDUP
NATIONAL WEATHER SERVICE LOUISVILLE KY
500 PM EDT SUN MAR 29 2015

NOTE "FAIR" INDICATES FEW OR NO CLOUDS BELOW 12,000 FEET
WITH NO SIGNIFICANT WEATHER AND/OR OBSTRUCTIONS TO VISIBILITY.

KYZ001>023-026-027-061>063-070>075-292200-
WESTERN AND SOUTH CENTRAL KENTUCKY

CITY           SKY/WX    TMP DP  RH WIND       PRES   REMARKS
PADUCAH        CLOUDY    58  36  43 S16G25    30.01F
HENDERSON      MOSUNNY   61  32  33 S21G29    29.99F
OWENSBORO      SUNNY     59  31  34 S21G30    30.01F
HOPKINSVILLE   CLOUDY    63  33  32 S15G23    30.05F
BOWLING GREEN  MOSUNNY   62  24  23 S18G30    30.08F
GLASGOW        NOT AVBL
$$

KYZ024-025-028>034-038-045-046-053-292200-
NORTH CENTRAL KENTUCKY

CITY           SKY/WX    TMP DP  RH WIND       PRES   REMARKS
LOUISVILLE/SDF PTSUNNY   58  14  17 S20       30.03F
LOUISVILLE/LOU PTSUNNY   57  15  19 S14       30.04F
FORT KNOX      CLOUDY    58  17  20 S20G26    30.02F
$$

KYZ035>037-039>044-047>052-055>060-089>105-292200-
NORTHEAST KENTUCKY

CITY           SKY/WX    TMP DP  RH WIND       PRES   REMARKS
LEXINGTON      PTSUNNY   55  12  18 S17       30.08F
COVINGTON      CLOUDY    49  15  25 S17G26    30.02F
FRANKFORT      PTSUNNY   56  10  16 S15G28    30.04F
$$

KYZ054-064>069-076>088-106>120-292200-
SOUTHEAST KENTUCKY

CITY           SKY/WX    TMP DP  RH WIND       PRES   REMARKS
JACKSON        PTSUNNY   56   2  11 VRB6G20   30.14F
LONDON         SUNNY     57   8  14 S14G20    30.13F
SOMERSET       NOT AVBL
MIDDLESBORO    SUNNY     56  11  17 S9        30.18F
MONTICELLO     CLEAR     62  12  14 S10       30.14F
$$



USA.gov is the U.S. government's official web portal to all federal, state and local government web resources and services.